Tracking 20942 objects as of 13-Jul-2020
HD Live streaming from Space Station
objects crossing your sky now

MORELOS 2

Track MORELOS 2 now!
MORELOS 2 is classified as:


NORAD ID: 16274
Int'l Code: 1985-109B
Perigee: 35,960.1 km
Apogee: 36,026.1 km
Inclination: 14.6 °
Period: 1,446.3 minutes
Semi major axis: 42364 km
RCS: 7.6304 m2 (large)
Launch date: November 27, 1985
Source: Mexico (MEX)
Launch site: AIR FORCE EASTERN TEST RANGE (AFETR)
aabbcc
Your satellite tracking list
Your tracking list is empty




NASA's NSSDC Master Catalog

Two Line Element Set (TLE):
1 16274U 85109B   20193.67954017 +.00000021 +00000-0 +00000-0 0  9990
2 16274 014.6186 013.6201 0007779 059.7871 127.8863 00.99564839024787
Source of the keplerian elements: AFSPC